| time (UTC) | temp C | wind direction | speed KPH | gust KPH | rain 1hr cm | rain 24hr cm | rain mn cm | humidity % | barometer mb |
| 20260508180513 | 14 | 250 | 3.2 | 9.7 | 0.00 | 0.00 | 0.00 | 32 | 1005.4 |
| 20260508180032 | 15 | 224 | 3.2 | 16.1 | 0.00 | 0.00 | 0.00 | 30 | 1005.4 |
| 20260508175512 | 15 | 222 | 4.8 | 16.1 | 0.00 | 0.00 | 0.00 | 31 | 1005.5 |
| 20260508175012 | 15 | 242 | 3.2 | 12.9 | 0.00 | 0.00 | 0.00 | 33 | 1005.4 |
| 20260508174533 | 15 | 201 | 3.2 | 17.7 | 0.00 | 0.00 | 0.00 | 34 | 1005.5 |
| 20260508174009 | 15 | 266 | 3.2 | 17.7 | 0.00 | 0.00 | 0.00 | 32 | 1005.5 |
| 20260508173513 | 16 | 213 | 1.6 | 12.9 | 0.00 | 0.00 | 0.00 | 31 | 1005.6 |
| 20260508173040 | 16 | 294 | 3.2 | 12.9 | 0.00 | 0.00 | 0.00 | 31 | 1005.6 |
| 20260508172512 | 16 | 292 | 3.2 | 12.9 | 0.00 | 0.00 | 0.00 | 32 | 1005.7 |
| 20260508172015 | 15 | 263 | 4.8 | 14.5 | 0.00 | 0.00 | 0.00 | 35 | 1005.8 |
| 20260508171532 | 15 | 271 | 3.2 | 16.1 | 0.00 | 0.00 | 0.00 | 36 | 1005.8 |
| 20260508171011 | 16 | 258 | 3.2 | 17.7 | 0.00 | 0.00 | 0.00 | 34 | 1006.0 |
| 20260508170511 | 15 | 0 | 3.2 | 17.7 | 0.00 | 0.00 | 0.00 | 35 | 1006.0 |
| 20260508170030 | 15 | 292 | 3.2 | 17.7 | 0.00 | 0.00 | 0.00 | 34 | 1006.0 |
| 20260508165512 | 15 | 22 | 1.6 | 9.7 | 0.00 | 0.00 | 0.00 | 32 | 1006.0 |
| 20260508165013 | 15 | 230 | 4.8 | 12.9 | 0.00 | 0.00 | 0.00 | 31 | 1006.2 |
| 20260508164530 | 15 | 269 | 3.2 | 16.1 | 0.00 | 0.00 | 0.00 | 32 | 1006.2 |
| 20260508164012 | 15 | 288 | 3.2 | 16.1 | 0.00 | 0.00 | 0.00 | 35 | 1006.3 |
| 20260508163513 | 15 | 19 | 3.2 | 16.1 | 0.00 | 0.00 | 0.00 | 33 | 1006.3 |
| 20260508163034 | 14 | 326 | 1.6 | 9.7 | 0.00 | 0.00 | 0.00 | 37 | 1006.4 |
| 20260508162512 | 13 | 267 | 1.6 | 9.7 | 0.00 | 0.00 | 0.00 | 37 | 1006.6 |
| 20260508162013 | 13 | 256 | 3.2 | 9.7 | 0.00 | 0.00 | 0.00 | 36 | 1006.5 |
| 20260508161530 | 13 | 219 | 1.6 | 16.1 | 0.00 | 0.00 | 0.00 | 37 | 1006.6 |
| 20260508161012 | 13 | 232 | 6.4 | 16.1 | 0.00 | 0.00 | 0.00 | 38 | 1006.6 |
| 20260508160515 | 13 | 223 | 4.8 | 14.5 | 0.00 | 0.00 | 0.00 | 36 | 1006.6 |
| 20260508160034 | 13 | 288 | 3.2 | 14.5 | 0.00 | 0.00 | 0.00 | 37 | 1006.7 |
| 20260508155514 | 13 | 247 | 4.8 | 14.5 | 0.00 | 0.00 | 0.00 | 35 | 1006.7 |
| 20260508155013 | 13 | 10 | 3.2 | 12.9 | 0.00 | 0.00 | 0.00 | 36 | 1006.7 |
| 20260508154529 | 13 | 284 | 3.2 | 12.9 | 0.00 | 0.00 | 0.00 | 37 | 1006.9 |
| 20260508154013 | 13 | 0 | 1.6 | 11.3 | 0.00 | 0.00 | 0.00 | 38 | 1007.0 |
| 20260508153514 | 12 | 310 | 3.2 | 11.3 | 0.00 | 0.00 | 0.00 | 39 | 1007.1 |
| 20260508153033 | 13 | 250 | 3.2 | 11.3 | 0.00 | 0.00 | 0.00 | 37 | 1007.3 |
| 20260508152514 | 13 | 241 | 3.2 | 11.3 | 0.00 | 0.00 | 0.00 | 40 | 1007.3 |
| 20260508152014 | 13 | 223 | 4.8 | 14.5 | 0.00 | 0.00 | 0.00 | 39 | 1007.3 |
| 20260508151536 | 13 | 310 | 4.8 | 16.1 | 0.00 | 0.00 | 0.00 | 38 | 1007.3 |
| 20260508151011 | 13 | 257 | 4.8 | 16.1 | 0.00 | 0.00 | 0.00 | 39 | 1007.3 |
| 20260508150516 | 13 | 285 | 3.2 | 12.9 | 0.00 | 0.00 | 0.00 | 39 | 1007.5 |
| 20260508150034 | 12 | 273 | 1.6 | 12.9 | 0.00 | 0.00 | 0.00 | 41 | 1007.5 |
| 20260508145510 | 12 | 254 | 3.2 | 12.9 | 0.00 | 0.00 | 0.00 | 44 | 1007.5 |
| 20260508145010 | 11 | 259 | 4.8 | 12.9 | 0.00 | 0.00 | 0.00 | 43 | 1007.5 |
| 20260508144530 | 11 | 294 | 4.8 | 12.9 | 0.00 | 0.00 | 0.00 | 43 | 1007.7 |
| 20260508144009 | 11 | 243 | 0.0 | 6.4 | 0.00 | 0.00 | 0.00 | 45 | 1007.7 |
| 20260508143514 | 11 | 243 | 0.0 | 8.0 | 0.00 | 0.00 | 0.00 | 47 | 1007.7 |
| 20260508143033 | 10 | 0 | 0.0 | 8.0 | 0.00 | 0.00 | 0.00 | 50 | 1007.7 |
| 20260508142510 | 10 | 216 | 1.6 | 8.0 | 0.00 | 0.00 | 0.00 | 49 | 1007.8 |
| 20260508142013 | 10 | 202 | 1.6 | 8.0 | 0.00 | 0.00 | 0.00 | 57 | 1007.8 |
| 20260508141554 | 9 | 0 | 1.6 | 8.0 | 0.00 | 0.00 | 0.00 | 55 | 1007.9 |
| 20260508141011 | 9 | 185 | 3.2 | 11.3 | 0.00 | 0.00 | 0.00 | 56 | 1007.9 |
| 20260508140516 | 8 | 185 | 4.8 | 12.9 | 0.00 | 0.00 | 0.00 | 56 | 1007.9 |
| 20260508140031 | 8 | 194 | 3.2 | 12.9 | 0.00 | 0.00 | 0.00 | 58 | 1008.0 |
| 20260508135517 | 8 | 223 | 1.6 | 11.3 | 0.00 | 0.00 | 0.00 | 57 | 1008.0 |
| 20260508135014 | 8 | 223 | 3.2 | 11.3 | 0.00 | 0.00 | 0.00 | 61 | 1008.1 |
| 20260508134548 | 7 | 193 | 1.6 | 12.9 | 0.00 | 0.00 | 0.00 | 64 | 1008.1 |
| 20260508134010 | 7 | 193 | 6.4 | 12.9 | 0.00 | 0.00 | 0.00 | 65 | 1008.0 |
| 20260508133517 | 7 | 199 | 4.8 | 12.9 | 0.00 | 0.00 | 0.00 | 67 | 1008.1 |
| 20260508133030 | 7 | 207 | 3.2 | 11.3 | 0.00 | 0.00 | 0.00 | 67 | 1008.1 |
| 20260508132513 | 7 | 217 | 4.8 | 11.3 | 0.00 | 0.00 | 0.00 | 67 | 1008.2 |
| 20260508132015 | 6 | 194 | 3.2 | 12.9 | 0.00 | 0.00 | 0.00 | 70 | 1008.1 |
| 20260508131535 | 6 | 196 | 4.8 | 12.9 | 0.00 | 0.00 | 0.00 | 71 | 1008.2 |
| 20260508131011 | 6 | 205 | 0.0 | 9.7 | 0.00 | 0.00 | 0.00 | 78 | 1008.2 |
| 20260508130513 | 5 | 202 | 0.0 | 6.4 | 0.00 | 0.00 | 0.00 | 82 | 1008.2 |
| 20260508130032 | 5 | 0 | 1.6 | 6.4 | 0.00 | 0.00 | 0.00 | 89 | 1008.2 |
| 20260508125510 | 3 | 0 | 1.6 | 6.4 | 0.00 | 0.00 | 0.00 | 96 | 1008.2 |
| 20260508125014 | 3 | 321 | 0.0 | 0.0 | 0.00 | 0.00 | 0.00 | 98 | 1008.3 |
| 20260508124532 | 2 | 0 | 0.0 | 0.0 | 0.00 | 0.00 | 0.00 | 98 | 1008.3 |
| 20260508124010 | 2 | 0 | 0.0 | 0.0 | 0.00 | 0.00 | 0.00 | 99 | 1008.3 |
| 20260508123517 | 2 | 0 | 0.0 | 0.0 | 0.00 | 0.00 | 0.00 | 99 | 1008.3 |
| 20260508123043 | 2 | 0 | 0.0 | 0.0 | 0.00 | 0.00 | 0.00 | 98 | 1008.2 |
| 20260508122509 | 1 | 0 | 0.0 | 0.0 | 0.00 | 0.00 | 0.00 | 98 | 1008.2 |
| 20260508122015 | 0 | 0 | 0.0 | 0.0 | 0.00 | 0.00 | 0.00 | 98 | 1008.2 |
| 20260508121533 | 0 | 0 | 0.0 | 0.0 | 0.00 | 0.00 | 0.00 | 97 | 1008.2 |
| 20260508121012 | 0 | 0 | 0.0 | 0.0 | 0.00 | 0.00 | 0.00 | 97 | 1008.2 |
| 20260508120511 | 0 | 0 | 0.0 | 0.0 | 0.00 | 0.00 | 0.00 | 97 | 1008.1 |
| 20260508120029 | 0 | 0 | 0.0 | 0.0 | 0.00 | 0.00 | 0.00 | 97 | 1008.1 |
| 20260508115510 | 0 | 0 | 0.0 | 0.0 | 0.00 | 0.00 | 0.00 | 97 | 1008.1 |
| 20260508115011 | 0 | 0 | 0.0 | 0.0 | 0.00 | 0.00 | 0.00 | 97 | 1008.1 |
| 20260508114536 | 0 | 0 | 0.0 | 0.0 | 0.00 | 0.00 | 0.00 | 97 | 1008.1 |
| 20260508114011 | 0 | 0 | 0.0 | 0.0 | 0.00 | 0.00 | 0.00 | 97 | 1008.1 |
| 20260508113511 | 0 | 0 | 0.0 | 0.0 | 0.00 | 0.00 | 0.00 | 97 | 1008.1 |
| 20260508113047 | -1 | 0 | 0.0 | 0.0 | 0.00 | 0.00 | 0.00 | 96 | 1008.1 |
| 20260508112513 | -1 | 0 | 0.0 | 0.0 | 0.00 | 0.00 | 0.00 | 96 | 1008.2 |
| 20260508112012 | -1 | 0 | 0.0 | 0.0 | 0.00 | 0.00 | 0.00 | 96 | 1008.2 |
| 20260508111532 | -1 | 0 | 0.0 | 0.0 | 0.00 | 0.00 | 0.00 | 97 | 1008.1 |
| 20260508111018 | -1 | 0 | 0.0 | 0.0 | 0.00 | 0.00 | 0.00 | 97 | 1008.2 |
| 20260508110514 | -1 | 0 | 0.0 | 0.0 | 0.00 | 0.00 | 0.00 | 96 | 1008.1 |
| 20260508110031 | -1 | 0 | 0.0 | 0.0 | 0.00 | 0.00 | 0.00 | 96 | 1008.1 |
| 20260508105512 | -1 | 0 | 0.0 | 0.0 | 0.00 | 0.00 | 0.00 | 96 | 1008.1 |
| 20260508105018 | -1 | 0 | 0.0 | 0.0 | 0.00 | 0.00 | 0.00 | 96 | 1008.1 |
| 20260508104532 | -1 | 0 | 0.0 | 0.0 | 0.00 | 0.00 | 0.00 | 96 | 1008.2 |
| 20260508104010 | -1 | 0 | 0.0 | 0.0 | 0.00 | 0.00 | 0.00 | 96 | 1008.1 |
| 20260508103513 | -1 | 0 | 0.0 | 0.0 | 0.00 | 0.00 | 0.00 | 95 | 1008.2 |
| 20260508103035 | -1 | 0 | 0.0 | 0.0 | 0.00 | 0.00 | 0.00 | 96 | 1008.2 |
| 20260508102511 | -1 | 0 | 0.0 | 0.0 | 0.00 | 0.00 | 0.00 | 96 | 1008.2 |
| 20260508102013 | -1 | 0 | 0.0 | 0.0 | 0.00 | 0.00 | 0.00 | 96 | 1008.3 |
| 20260508101534 | -1 | 0 | 0.0 | 0.0 | 0.00 | 0.00 | 0.00 | 96 | 1008.3 |
| 20260508101016 | -1 | 0 | 0.0 | 0.0 | 0.00 | 0.00 | 0.00 | 96 | 1008.3 |
| 20260508100516 | -2 | 0 | 0.0 | 0.0 | 0.00 | 0.00 | 0.00 | 95 | 1008.3 |
| 20260508100030 | -1 | 0 | 0.0 | 0.0 | 0.00 | 0.00 | 0.00 | 95 | 1008.3 |
| 20260508095512 | -1 | 0 | 0.0 | 0.0 | 0.00 | 0.00 | 0.00 | 95 | 1008.3 |
| 20260508095012 | -1 | 0 | 0.0 | 0.0 | 0.00 | 0.00 | 0.00 | 96 | 1008.3 |
| 20260508094530 | -1 | 0 | 0.0 | 0.0 | 0.00 | 0.00 | 0.00 | 96 | 1008.3 |
| 20260508094010 | -1 | 0 | 0.0 | 0.0 | 0.00 | 0.00 | 0.00 | 96 | 1008.4 |
| 20260508093512 | -1 | 0 | 0.0 | 0.0 | 0.00 | 0.00 | 0.00 | 96 | 1008.4 |
| 20260508093032 | -1 | 0 | 0.0 | 0.0 | 0.00 | 0.00 | 0.00 | 96 | 1008.4 |
| 20260508092512 | -1 | 0 | 0.0 | 0.0 | 0.00 | 0.00 | 0.00 | 95 | 1008.4 |
| 20260508092009 | -1 | 0 | 0.0 | 0.0 | 0.00 | 0.00 | 0.00 | 96 | 1008.4 |
| 20260508091537 | -1 | 0 | 0.0 | 0.0 | 0.00 | 0.00 | 0.00 | 95 | 1008.3 |
| 20260508091011 | -1 | 0 | 0.0 | 0.0 | 0.00 | 0.00 | 0.00 | 95 | 1008.4 |
| 20260508090511 | -1 | 0 | 0.0 | 0.0 | 0.00 | 0.00 | 0.00 | 95 | 1008.4 |
| 20260508090038 | -1 | 0 | 0.0 | 0.0 | 0.00 | 0.00 | 0.00 | 95 | 1008.5 |
| 20260508085510 | -1 | 0 | 0.0 | 0.0 | 0.00 | 0.00 | 0.00 | 95 | 1008.5 |
| 20260508085011 | -1 | 0 | 0.0 | 0.0 | 0.00 | 0.00 | 0.00 | 95 | 1008.5 |
| 20260508084530 | -1 | 0 | 0.0 | 0.0 | 0.00 | 0.00 | 0.00 | 95 | 1008.5 |
| 20260508084012 | -1 | 0 | 0.0 | 0.0 | 0.00 | 0.00 | 0.00 | 95 | 1008.5 |
| 20260508083512 | 0 | 0 | 0.0 | 0.0 | 0.00 | 0.00 | 0.00 | 95 | 1008.4 |
| 20260508083029 | 0 | 0 | 0.0 | 0.0 | 0.00 | 0.00 | 0.00 | 95 | 1008.4 |
| 20260508082511 | 0 | 0 | 0.0 | 0.0 | 0.00 | 0.00 | 0.00 | 95 | 1008.5 |
| 20260508082011 | 0 | 0 | 0.0 | 0.0 | 0.00 | 0.00 | 0.00 | 96 | 1008.5 |
| 20260508081531 | -1 | 0 | 0.0 | 0.0 | 0.00 | 0.00 | 0.00 | 95 | 1008.4 |
| 20260508081009 | -1 | 0 | 0.0 | 0.0 | 0.00 | 0.00 | 0.00 | 94 | 1008.4 |
| 20260508080510 | -1 | 0 | 0.0 | 0.0 | 0.00 | 0.00 | 0.00 | 93 | 1008.6 |
| 20260508080034 | 0 | 0 | 0.0 | 0.0 | 0.00 | 0.00 | 0.00 | 94 | 1008.6 |
| 20260508075512 | 0 | 0 | 0.0 | 0.0 | 0.00 | 0.00 | 0.00 | 94 | 1008.6 |
| 20260508075013 | 0 | 0 | 0.0 | 0.0 | 0.00 | 0.00 | 0.00 | 94 | 1008.6 |
| 20260508074536 | 0 | 0 | 0.0 | 0.0 | 0.00 | 0.00 | 0.00 | 94 | 1008.7 |
| 20260508074011 | 0 | 0 | 0.0 | 0.0 | 0.00 | 0.00 | 0.00 | 94 | 1008.7 |
| 20260508073513 | 0 | 0 | 0.0 | 0.0 | 0.00 | 0.00 | 0.00 | 94 | 1008.8 |
| 20260508073032 | 0 | 0 | 0.0 | 0.0 | 0.00 | 0.00 | 0.00 | 95 | 1008.8 |
| 20260508072510 | 0 | 0 | 0.0 | 0.0 | 0.00 | 0.00 | 0.00 | 95 | 1008.8 |
| 20260508072014 | 0 | 0 | 0.0 | 0.0 | 0.00 | 0.00 | 0.00 | 95 | 1008.9 |
| 20260508071532 | 0 | 0 | 0.0 | 0.0 | 0.00 | 0.00 | 0.00 | 94 | 1008.9 |
| 20260508071013 | 0 | 0 | 0.0 | 0.0 | 0.00 | 0.00 | 0.00 | 93 | 1009.0 |
| 20260508070517 | 0 | 0 | 0.0 | 0.0 | 0.00 | 0.00 | 0.00 | 93 | 1009.0 |
| 20260508070033 | 0 | 0 | 0.0 | 0.0 | 0.00 | 0.00 | 0.00 | 94 | 1009.1 |
| 20260508065510 | 0 | 0 | 0.0 | 0.0 | 0.00 | 0.00 | 0.00 | 93 | 1009.1 |
| 20260508065015 | 0 | 0 | 0.0 | 0.0 | 0.00 | 0.00 | 0.00 | 93 | 1009.0 |
| 20260508064530 | 0 | 0 | 0.0 | 0.0 | 0.00 | 0.00 | 0.00 | 92 | 1009.1 |
| 20260508064011 | 0 | 0 | 0.0 | 0.0 | 0.00 | 0.00 | 0.00 | 93 | 1009.2 |
| 20260508063514 | 0 | 0 | 0.0 | 0.0 | 0.00 | 0.00 | 0.00 | 92 | 1009.1 |
| 20260508063029 | 0 | 0 | 0.0 | 0.0 | 0.00 | 0.00 | 0.00 | 92 | 1009.2 |
| 20260508062513 | 0 | 0 | 0.0 | 0.0 | 0.00 | 0.00 | 0.00 | 91 | 1009.2 |
| 20260508062016 | 0 | 0 | 0.0 | 0.0 | 0.00 | 0.00 | 0.00 | 91 | 1009.2 |
| 20260508061532 | 0 | 0 | 0.0 | 0.0 | 0.00 | 0.00 | 0.00 | 91 | 1009.2 |
| 20260508061012 | 0 | 0 | 0.0 | 0.0 | 0.00 | 0.00 | 0.00 | 92 | 1009.2 |
| 20260508060515 | 0 | 0 | 0.0 | 0.0 | 0.00 | 0.00 | 0.00 | 90 | 1009.2 |
| 20260508060031 | 0 | 0 | 0.0 | 0.0 | 0.00 | 0.00 | 0.00 | 90 | 1009.2 |
| 20260508055508 | 0 | 0 | 0.0 | 0.0 | 0.00 | 0.00 | 0.00 | 89 | 1009.2 |
| 20260508055011 | 0 | 0 | 0.0 | 0.0 | 0.00 | 0.00 | 0.00 | 89 | 1009.3 |
| 20260508054531 | 0 | 0 | 0.0 | 0.0 | 0.00 | 0.00 | 0.00 | 88 | 1009.2 |
| 20260508054012 | 0 | 0 | 0.0 | 0.0 | 0.00 | 0.00 | 0.00 | 88 | 1009.4 |
| 20260508053514 | 0 | 0 | 0.0 | 0.0 | 0.00 | 0.00 | 0.00 | 89 | 1009.3 |
| 20260508053028 | 0 | 0 | 0.0 | 0.0 | 0.00 | 0.00 | 0.00 | 88 | 1009.4 |
| 20260508052511 | 0 | 0 | 0.0 | 0.0 | 0.00 | 0.00 | 0.00 | 88 | 1009.5 |
| 20260508052015 | 0 | 0 | 0.0 | 0.0 | 0.00 | 0.00 | 0.00 | 88 | 1009.5 |
| 20260508051528 | 0 | 0 | 0.0 | 0.0 | 0.00 | 0.00 | 0.00 | 87 | 1009.6 |
| 20260508051010 | 1 | 0 | 0.0 | 0.0 | 0.00 | 0.00 | 0.00 | 87 | 1009.5 |
| 20260508050511 | 1 | 0 | 0.0 | 0.0 | 0.00 | 0.00 | 0.00 | 88 | 1009.5 |
| 20260508050031 | 1 | 0 | 0.0 | 0.0 | 0.00 | 0.00 | 0.00 | 86 | 1009.5 |
| 20260508045512 | 1 | 0 | 0.0 | 0.0 | 0.00 | 0.00 | 0.00 | 85 | 1009.5 |
| 20260508045011 | 1 | 0 | 0.0 | 0.0 | 0.00 | 0.00 | 0.00 | 84 | 1009.5 |
| 20260508044534 | 1 | 0 | 0.0 | 0.0 | 0.00 | 0.00 | 0.00 | 84 | 1009.6 |
| 20260508044008 | 1 | 0 | 0.0 | 0.0 | 0.00 | 0.00 | 0.00 | 84 | 1009.6 |
| 20260508043514 | 1 | 0 | 0.0 | 0.0 | 0.00 | 0.00 | 0.00 | 83 | 1009.7 |
| 20260508043031 | 1 | 0 | 0.0 | 0.0 | 0.00 | 0.00 | 0.00 | 81 | 1009.7 |
| 20260508042511 | 1 | 0 | 0.0 | 0.0 | 0.00 | 0.00 | 0.00 | 81 | 1009.7 |
| 20260508042012 | 1 | 0 | 0.0 | 0.0 | 0.00 | 0.00 | 0.00 | 80 | 1009.8 |
| 20260508041530 | 1 | 0 | 0.0 | 0.0 | 0.00 | 0.00 | 0.00 | 79 | 1009.8 |
| 20260508041011 | 2 | 0 | 0.0 | 0.0 | 0.00 | 0.00 | 0.00 | 79 | 1009.7 |
| 20260508040516 | 2 | 0 | 0.0 | 0.0 | 0.00 | 0.00 | 0.00 | 81 | 1009.7 |
| 20260508040031 | 2 | 0 | 0.0 | 0.0 | 0.00 | 0.00 | 0.00 | 81 | 1009.8 |
| 20260508035509 | 2 | 0 | 0.0 | 0.0 | 0.00 | 0.00 | 0.00 | 80 | 1009.7 |
| 20260508035015 | 2 | 0 | 0.0 | 0.0 | 0.00 | 0.00 | 0.00 | 80 | 1009.7 |
| 20260508034530 | 2 | 0 | 0.0 | 0.0 | 0.00 | 0.00 | 0.00 | 80 | 1009.7 |
| 20260508034010 | 3 | 0 | 0.0 | 0.0 | 0.00 | 0.00 | 0.00 | 80 | 1009.7 |
| 20260508033518 | 3 | 0 | 0.0 | 0.0 | 0.00 | 0.00 | 0.00 | 80 | 1009.7 |
| 20260508033027 | 3 | 0 | 0.0 | 0.0 | 0.00 | 0.00 | 0.00 | 77 | 1009.7 |
| 20260508032512 | 3 | 0 | 0.0 | 0.0 | 0.00 | 0.00 | 0.00 | 77 | 1009.7 |
| 20260508032017 | 3 | 0 | 0.0 | 0.0 | 0.00 | 0.00 | 0.00 | 76 | 1009.6 |
| 20260508031531 | 3 | 0 | 0.0 | 0.0 | 0.00 | 0.00 | 0.00 | 73 | 1009.8 |
| 20260508031011 | 3 | 0 | 0.0 | 0.0 | 0.00 | 0.00 | 0.00 | 72 | 1009.7 |
| 20260508030515 | 3 | 0 | 0.0 | 0.0 | 0.00 | 0.00 | 0.00 | 73 | 1009.7 |
| 20260508030030 | 3 | 0 | 0.0 | 0.0 | 0.00 | 0.00 | 0.00 | 75 | 1009.8 |
| 20260508025511 | 3 | 0 | 0.0 | 0.0 | 0.00 | 0.00 | 0.00 | 76 | 1009.7 |
| 20260508025015 | 4 | 0 | 0.0 | 0.0 | 0.00 | 0.00 | 0.00 | 75 | 1009.7 |
| 20260508024537 | 4 | 0 | 0.0 | 0.0 | 0.00 | 0.00 | 0.00 | 74 | 1009.7 |
| 20260508024010 | 4 | 0 | 0.0 | 0.0 | 0.00 | 0.00 | 0.00 | 73 | 1009.7 |
| 20260508023513 | 4 | 0 | 0.0 | 0.0 | 0.00 | 0.00 | 0.00 | 71 | 1009.7 |
| 20260508023029 | 4 | 0 | 0.0 | 0.0 | 0.00 | 0.00 | 0.00 | 68 | 1009.7 |
| 20260508022514 | 5 | 0 | 0.0 | 0.0 | 0.00 | 0.00 | 0.00 | 63 | 1009.7 |
| 20260508022016 | 5 | 0 | 0.0 | 0.0 | 0.00 | 0.00 | 0.00 | 62 | 1009.7 |
| 20260508021533 | 5 | 0 | 0.0 | 0.0 | 0.00 | 0.00 | 0.00 | 63 | 1009.8 |
| 20260508021016 | 5 | 0 | 0.0 | 0.0 | 0.00 | 0.00 | 0.00 | 64 | 1009.7 |
| 20260508020513 | 5 | 0 | 0.0 | 0.0 | 0.00 | 0.00 | 0.00 | 64 | 1009.7 |
| 20260508020029 | 5 | 0 | 0.0 | 0.0 | 0.00 | 0.00 | 0.00 | 65 | 1009.7 |
| 20260508015510 | 6 | 0 | 0.0 | 0.0 | 0.00 | 0.00 | 0.00 | 64 | 1009.6 |
| 20260508015014 | 6 | 0 | 0.0 | 0.0 | 0.00 | 0.00 | 0.00 | 61 | 1009.5 |
| 20260508014530 | 6 | 0 | 0.0 | 0.0 | 0.00 | 0.00 | 0.00 | 59 | 1009.5 |
| 20260508014011 | 6 | 0 | 0.0 | 0.0 | 0.00 | 0.00 | 0.00 | 56 | 1009.4 |
| 20260508013517 | 6 | 0 | 0.0 | 0.0 | 0.00 | 0.00 | 0.00 | 56 | 1009.4 |
| 20260508013040 | 6 | 0 | 0.0 | 1.6 | 0.00 | 0.00 | 0.00 | 55 | 1009.5 |
| 20260508012508 | 6 | 0 | 0.0 | 1.6 | 0.00 | 0.00 | 0.00 | 55 | 1009.5 |
| 20260508012011 | 7 | 321 | 0.0 | 0.0 | 0.00 | 0.00 | 0.00 | 56 | 1009.4 |
| 20260508011533 | 7 | 0 | 0.0 | 0.0 | 0.00 | 0.00 | 0.00 | 55 | 1009.4 |
| 20260508011009 | 7 | 0 | 0.0 | 1.6 | 0.00 | 0.00 | 0.00 | 55 | 1009.5 |
| 20260508010512 | 7 | 0 | 0.0 | 1.6 | 0.00 | 0.00 | 0.00 | 54 | 1009.3 |
| 20260508010033 | 7 | 0 | 0.0 | 4.8 | 0.00 | 0.00 | 0.00 | 54 | 1009.4 |
| 20260508005513 | 7 | 0 | 0.0 | 4.8 | 0.00 | 0.00 | 0.00 | 54 | 1009.4 |
| 20260508005017 | 7 | 0 | 0.0 | 3.2 | 0.00 | 0.00 | 0.00 | 53 | 1009.4 |
| 20260508004536 | 8 | 321 | 0.0 | 3.2 | 0.00 | 0.00 | 0.00 | 53 | 1009.3 |
| 20260508004013 | 8 | 0 | 0.0 | 3.2 | 0.00 | 0.00 | 0.00 | 52 | 1009.3 |
| 20260508003515 | 8 | 0 | 0.0 | 4.8 | 0.00 | 0.00 | 0.00 | 53 | 1009.3 |
| 20260508003032 | 8 | 321 | 0.0 | 6.4 | 0.00 | 0.00 | 0.00 | 52 | 1009.3 |
| 20260508002511 | 8 | 0 | 1.6 | 9.7 | 0.00 | 0.00 | 0.00 | 51 | 1009.3 |
| 20260508002013 | 8 | 256 | 3.2 | 9.7 | 0.00 | 0.00 | 0.00 | 53 | 1009.3 |
| 20260508001530 | 8 | 0 | 1.6 | 9.7 | 0.00 | 0.00 | 0.00 | 51 | 1009.3 |
| 20260508001009 | 8 | 272 | 3.2 | 9.7 | 0.00 | 0.00 | 0.00 | 52 | 1009.3 |
| 20260508000513 | 8 | 284 | 1.6 | 6.4 | 0.00 | 0.00 | 0.00 | 53 | 1009.3 |
| 20260508000032 | 8 | 265 | 1.6 | 6.4 | 0.00 | 0.00 | 0.00 | 54 | 1009.3 |
| 20260507235507 | 8 | 269 | 1.6 | 4.8 | 0.00 | 0.00 | 0.00 | 54 | 1009.3 |
| 20260507235008 | 8 | 267 | 1.6 | 4.8 | 0.00 | 0.00 | 0.00 | 54 | 1009.3 |
| 20260507234528 | 8 | 0 | 0.0 | 11.3 | 0.00 | 0.00 | 0.00 | 55 | 1009.3 |
| 20260507234008 | 8 | 269 | 1.6 | 11.3 | 0.00 | 0.00 | 0.00 | 54 | 1009.3 |
| 20260507233510 | 8 | 266 | 4.8 | 11.3 | 0.00 | 0.00 | 0.00 | 52 | 1009.3 |
| 20260507233036 | 8 | 236 | 4.8 | 12.9 | 0.00 | 0.00 | 0.00 | 52 | 1009.4 |
| 20260507232511 | 8 | 278 | 4.8 | 16.1 | 0.00 | 0.00 | 0.00 | 54 | 1009.5 |
| 20260507232017 | 8 | 228 | 6.4 | 16.1 | 0.00 | 0.00 | 0.00 | 55 | 1009.5 |
| 20260507231529 | 8 | 284 | 4.8 | 22.5 | 0.00 | 0.00 | 0.00 | 54 | 1009.6 |
| 20260507231016 | 8 | 272 | 11.3 | 22.5 | 0.00 | 0.00 | 0.00 | 51 | 1009.7 |
| 20260507230510 | 9 | 336 | 8.0 | 19.3 | 0.00 | 0.00 | 0.00 | 49 | 1009.4 |
| 20260507230030 | 9 | 284 | 3.2 | 14.5 | 0.00 | 0.00 | 0.00 | 45 | 1009.2 |
| 20260507225510 | 10 | 270 | 4.8 | 14.5 | 0.00 | 0.00 | 0.00 | 46 | 1009.1 |
| 20260507225011 | 10 | 257 | 1.6 | 6.4 | 0.00 | 0.00 | 0.00 | 46 | 1009.1 |
| 20260507224534 | 9 | 313 | 1.6 | 6.4 | 0.00 | 0.00 | 0.00 | 45 | 1009.1 |
| 20260507224007 | 9 | 301 | 1.6 | 16.1 | 0.00 | 0.00 | 0.00 | 47 | 1009.1 |
| 20260507223507 | 9 | 289 | 6.4 | 16.1 | 0.00 | 0.00 | 0.00 | 44 | 1009.2 |
| 20260507223031 | 10 | 260 | 1.6 | 14.5 | 0.00 | 0.00 | 0.00 | 46 | 1009.2 |
| 20260507222511 | 10 | 267 | 3.2 | 17.7 | 0.00 | 0.00 | 0.00 | 44 | 1009.2 |
| 20260507222011 | 10 | 286 | 4.8 | 17.7 | 0.00 | 0.00 | 0.00 | 44 | 1009.2 |
| 20260507221528 | 9 | 249 | 8.0 | 17.7 | 0.00 | 0.00 | 0.00 | 43 | 1009.4 |
| 20260507221012 | 9 | 266 | 4.8 | 12.9 | 0.00 | 0.00 | 0.00 | 43 | 1009.2 |
| 20260507220510 | 10 | 281 | 3.2 | 14.5 | 0.00 | 0.00 | 0.00 | 42 | 1009.2 |
| 20260507220029 | 10 | 259 | 4.8 | 14.5 | 0.00 | 0.00 | 0.00 | 44 | 1009.2 |
| 20260507215509 | 10 | 252 | 3.2 | 16.1 | 0.00 | 0.00 | 0.00 | 45 | 1009.2 |
| 20260507215013 | 9 | 240 | 6.4 | 16.1 | 0.00 | 0.00 | 0.00 | 42 | 1009.1 |
| 20260507214531 | 10 | 261 | 1.6 | 16.1 | 0.00 | 0.00 | 0.00 | 44 | 1009.2 |
| 20260507214013 | 10 | 324 | 4.8 | 16.1 | 0.00 | 0.00 | 0.00 | 43 | 1009.3 |
| 20260507213516 | 10 | 281 | 8.0 | 16.1 | 0.00 | 0.00 | 0.00 | 42 | 1009.2 |
| 20260507213032 | 9 | 275 | 4.8 | 14.5 | 0.00 | 0.00 | 0.00 | 42 | 1009.2 |
| 20260507212510 | 9 | 284 | 3.2 | 22.5 | 0.00 | 0.00 | 0.00 | 46 | 1009.3 |
| 20260507212012 | 9 | 230 | 3.2 | 22.5 | 0.00 | 0.00 | 0.00 | 44 | 1009.3 |
| 20260507211532 | 9 | 223 | 8.0 | 20.9 | 0.00 | 0.00 | 0.00 | 45 | 1009.5 |
| 20260507211008 | 9 | 263 | 6.4 | 20.9 | 0.00 | 0.00 | 0.00 | 44 | 1009.4 |
| 20260507210509 | 9 | 262 | 9.7 | 24.1 | 0.00 | 0.00 | 0.00 | 45 | 1009.3 |
| 20260507210047 | 9 | 229 | 8.0 | 24.1 | 0.00 | 0.00 | 0.00 | 42 | 1009.3 |
| 20260507205508 | 10 | 280 | 6.4 | 16.1 | 0.00 | 0.00 | 0.00 | 39 | 1009.2 |
| 20260507205011 | 10 | 221 | 6.4 | 16.1 | 0.00 | 0.00 | 0.00 | 42 | 1009.3 |
| 20260507204530 | 10 | 251 | 6.4 | 16.1 | 0.00 | 0.00 | 0.00 | 38 | 1009.3 |
| 20260507204008 | 10 | 252 | 3.2 | 17.7 | 0.00 | 0.00 | 0.00 | 38 | 1009.2 |
| 20260507203512 | 10 | 259 | 6.4 | 17.7 | 0.00 | 0.00 | 0.00 | 40 | 1009.4 |
| 20260507203030 | 10 | 281 | 8.0 | 16.1 | 0.00 | 0.00 | 0.00 | 39 | 1009.3 |
| 20260507202511 | 10 | 259 | 6.4 | 16.1 | 0.00 | 0.00 | 0.00 | 42 | 1009.4 |
| 20260507202013 | 10 | 303 | 4.8 | 11.3 | 0.00 | 0.00 | 0.00 | 42 | 1009.3 |
| 20260507201529 | 10 | 286 | 1.6 | 12.9 | 0.00 | 0.00 | 0.00 | 43 | 1009.5 |
| 20260507201009 | 10 | 290 | 4.8 | 14.5 | 0.00 | 0.00 | 0.00 | 41 | 1009.6 |
| 20260507200512 | 9 | 257 | 3.2 | 14.5 | 0.00 | 0.00 | 0.00 | 43 | 1009.7 |
| 20260507200036 | 9 | 277 | 6.4 | 19.3 | 0.00 | 0.00 | 0.00 | 40 | 1009.7 |
| 20260507195512 | 9 | 254 | 3.2 | 19.3 | 0.00 | 0.00 | 0.00 | 42 | 1009.8 |
| 20260507195010 | 9 | 275 | 4.8 | 19.3 | 0.00 | 0.00 | 0.00 | 42 | 1009.9 |
| 20260507194547 | 8 | 259 | 4.8 | 16.1 | 0.00 | 0.00 | 0.00 | 42 | 1010.0 |
| 20260507194010 | 9 | 233 | 6.4 | 16.1 | 0.00 | 0.00 | 0.00 | 40 | 1010.0 |
| 20260507193510 | 9 | 244 | 8.0 | 16.1 | 0.00 | 0.00 | 0.00 | 38 | 1010.0 |
| 20260507193033 | 9 | 267 | 3.2 | 9.7 | 0.00 | 0.00 | 0.00 | 40 | 1009.9 |
| 20260507192510 | 10 | 302 | 1.6 | 14.5 | 0.00 | 0.00 | 0.00 | 40 | 1010.1 |
| 20260507192011 | 9 | 347 | 4.8 | 14.5 | 0.00 | 0.00 | 0.00 | 40 | 1010.1 |
| 20260507191530 | 9 | 229 | 3.2 | 22.5 | 0.00 | 0.00 | 0.00 | 42 | 1010.0 |
| 20260507191008 | 9 | 281 | 8.0 | 22.5 | 0.00 | 0.00 | 0.00 | 42 | 1010.0 |
| 20260507190510 | 9 | 257 | 3.2 | 22.5 | 0.00 | 0.00 | 0.00 | 43 | 1010.0 |
| 20260507190030 | 9 | 288 | 3.2 | 22.5 | 0.00 | 0.00 | 0.00 | 41 | 1010.0 |
| 20260507185509 | 10 | 193 | 8.0 | 17.7 | 0.00 | 0.00 | 0.00 | 37 | 1010.1 |
| 20260507185015 | 10 | 261 | 4.8 | 11.3 | 0.00 | 0.00 | 0.00 | 40 | 1010.2 |
| 20260507184531 | 9 | 247 | 3.2 | 14.5 | 0.00 | 0.00 | 0.00 | 40 | 1010.1 |
| 20260507184010 | 9 | 232 | 3.2 | 14.5 | 0.00 | 0.00 | 0.00 | 44 | 1010.2 |
| 20260507183514 | 8 | 306 | 6.4 | 14.5 | 0.00 | 0.00 | 0.00 | 42 | 1010.4 |
| 20260507183035 | 8 | 288 | 4.8 | 17.7 | 0.00 | 0.00 | 0.00 | 41 | 1010.3 |
| 20260507182510 | 8 | 254 | 3.2 | 17.7 | 0.00 | 0.00 | 0.00 | 41 | 1010.3 |
| 20260507182016 | 9 | 296 | 6.4 | 16.1 | 0.00 | 0.00 | 0.00 | 39 | 1010.3 |
| 20260507181529 | 10 | 0 | 1.6 | 16.1 | 0.00 | 0.00 | 0.00 | 37 | 1010.4 |
| 20260507181015 | 10 | 236 | 6.4 | 19.3 | 0.00 | 0.00 | 0.00 | 41 | 1010.5 |